Location: Calvatone
(45.1167°N, 10.4333°E)
Time: 14:02:51
(UTC+00:00)

NOSS 3-4 (C) - Pass Details

Date: 28 January 2023
Orbit: 827 x 1385 km, 63.4° (Epoch: 28 March)

Event Time Altitude Azimuth Distance (km) Brightness Sun altitude
Rises 17:37:08 0° 320° (NW) 3,816 7.0 -13.8°
Reaches altitude 10° 17:39:38 10° 317° (NW) 2,935 6.4 -14.2°
Maximum altitude 17:46:36 65° 238° (WSW) 1,307 4.4 -15.4°
Drops below altitude 10° 17:54:30 10° 159° (SSE) 3,309 6.1 -16.8°
Sets 17:57:29 0° 156° (SSE) 4,330 6.7 -17.3°
